Location: Del Amo
(33.8464°N, 118.2104°W)
Time: 03:22:06
(UTC+00:00)

SR - Pass Details

Date: 21 September 2024
Orbit: 578 x 855 km, 66.7° (Epoch: 02 October)

Event Time Altitude Azimuth Distance (km) Brightness Sun altitude
Rises 19:41:54 0° 229° (SW) 2,820 ? 56.4°
Reaches altitude 10° 19:44:22 10° 240° (WSW) 1,901 ? 56.4°
Maximum altitude 19:48:06 30° 302° (WNW) 1,058 ? 56.4°
Drops below altitude 10° 19:51:49 10° 4° (N) 1,896 ? 56.4°
Sets 19:54:17 0° 15° (NNE) 2,811 ? 56.4°
